Weather observations for the past three days for
Taylor County Airport
Imperial (Metric)
Date Time (cdt) Wind (mph) Vis. (mi.) Weather Sky Cond. Temperature (ºF) Relative Humidity Wind Chill (°F) Heat Index (°F) Pressure Precipitation (in)
Air Dwpt 6 hour altimeter (in) sea level (mb) 1 hr 3 hr 6 hr
Max. Min.
18 15:15 NW 3 10.00 Partly Cloudy SCT060 72 45.9 39% 30.21 0.0
18 14:55 W 3 10.00 Fair CLR 72.7 48.2 42% 30.21 0.0
18 14:35 W 5 10.00 Partly Cloudy SCT055 69.6 44.8 41% 30.21 0.0
18 14:15 N 3 10.00 Partly Cloudy SCT055 72.3 46.8 40% 30.21 0.0
18 13:55 N 5 10.00 Mostly Cloudy BKN055 70 47.5 45% 30.22 0.0
18 13:35 NW 3 10.00 Partly Cloudy SCT055 71.1 47.8 44% 30.22 0.0
18 13:15 Calm 10.00 Mostly Cloudy BKN055 70.3 44.6 40% 30.22 0.0
18 12:55 N 3 10.00 Partly Cloudy SCT055 68.2 46 70.9 51.3 45% 30.23 0.0
18 12:35 Calm 10.00 Partly Cloudy SCT055 70.3 45.5 41% 30.23 0.0
18 12:15 Calm 10.00 Fair CLR 70.5 46.2 42% 30.22 0.0
18 11:55 NW 3 10.00 Partly Cloudy SCT050 69.4 46.2 44% 30.23 0.0
18 11:35 N 9 10.00 Partly Cloudy SCT050 68.9 46.8 45% 30.23 0.0
18 11:15 N 8 10.00 Fair CLR 68.5 46.6 46% 30.23 0.0
18 10:55 NW 7 10.00 Fair CLR 67.8 45.5 45% 30.24 0.0
18 10:35 N 8 10.00 Fair CLR 67.5 46.8 48% 30.23 0.0
18 10:15 N 6 10.00 Fair CLR 67.1 47.5 50% 30.23 0.0
18 09:55 NW 7 10.00 Fair CLR 65.7 48.2 53% 30.24 0.0
18 09:35 NW 7 10.00 Fair CLR 65.5 50.4 58% 30.24 0.0
18 09:15 N 8 10.00 Fair CLR 64.4 49.5 59% 30.24 0.0
18 08:55 N 5 10.00 Fair CLR 63.1 50.9 65% 30.24 0.0
18 08:35 NW 3 10.00 Fair CLR 61.7 51.8 70% 30.24 0.0
18 08:15 Calm 10.00 Fair CLR 59.5 54.3 83% 30.25 0.0
18 07:55 Calm 10.00 Fair CLR 57.2 56.3 97% 30.24 0.0
18 07:35 Calm 10.00 Partly Cloudy SCT060 54.9 54 97% 30.24 0.0
18 07:15 Calm 10.00 Partly Cloudy SCT060 52.9 52 97% 30.24 0.0
18 06:55 Calm 10.00 Fair CLR 51.1 50.2 51.1 47.7 97% 30.24 0.0
18 06:35 Calm 10.00 Fair CLR 48.6 47.8 97% 30.24 0.0
18 06:15 Calm 5.00 Fair CLR 48.6 47.8 97% 30.24 0.0
18 05:55 Calm 5.00 Fair CLR 48.7 47.8 97% 30.24 0.0
18 05:40 Calm 10.00 Fair CLR 48.4 47.7 97% 30.23 0.0
18 05:15 Calm 10.00 Fair CLR 48.6 47.7 97% 30.23 0.0
18 04:55 Calm 10.00 Fair CLR 49.1 48.2 97% 30.23 0.0
18 04:35 Calm 10.00 Fair CLR 48.7 48 97% 30.22 0.0
18 04:15 Calm 10.00 Fair CLR 48.9 48.2 97% 30.22 0.0
18 03:55 Calm 10.00 Fair CLR 48.7 47.8 97% 30.21 0.0
18 03:35 Calm 10.00 Fair CLR 48.6 47.7 97% 30.21 0.0
18 03:15 Calm 10.00 Fair CLR 49.1 48.2 97% 30.2 0.0
18 02:55 Calm 7.00 Fair CLR 48.6 47.7 97% 30.2 0.0
18 02:35 Calm 5.00 Fair CLR 47.8 46.9 97% 30.2 0.0
18 02:15 Calm 0.75 Sky Obscured VV005 48.6 47.8 97% 30.2 0.0
18 01:55 Calm 0.25 Sky Obscured VV002 48 47.1 97% 30.2 0.0
18 01:35 Calm 0.75 Sky Obscured VV005 48.7 48 97% 30.2 0.0
18 01:15 Calm 10.00 Fair CLR 49.6 48.9 97% 30.2 0.0
18 00:55 Calm 10.00 Fair CLR 50 49.1 64.6 49.8 97% 30.2 0.0
18 00:35 Calm 10.00 Fair CLR 50.2 49.3 97% 30.2 0.0
18 00:15 Calm 10.00 Fair CLR 50.5 49.6 97% 30.19 0.0
17 23:55 Calm 10.00 Fair CLR 50.9 50 97% 30.19 0.0
17 23:35 Calm 10.00 Fair CLR 51.3 50.4 97% 30.19 0.0
17 23:15 Calm 10.00 Fair CLR 51.8 50.9 97% 30.18 0.0
17 22:55 Calm 10.00 Fair CLR 52.3 51.4 97% 30.17 0.0
17 22:35 Calm 7.00 Fair CLR 53.2 52.3 97% 30.17 0.0
17 22:15 Calm 10.00 Fair CLR 54.1 51.4 91% 30.17 0.0
17 21:55 Calm 10.00 Fair CLR 55.2 50 83% 30.17 0.0
17 21:35 N 5 10.00 Fair CLR 57 49.5 76% 30.16 0.0
17 21:15 N 5 10.00 Fair CLR 57.7 49.1 73% 30.15 0.0
17 20:55 N 3 10.00 Fair CLR 59.2 49.5 70% 30.15 0.0
17 20:35 N 3 10.00 Fair CLR 60.1 49.5 68% 30.15 0.0
17 20:15 N 5 10.00 Partly Cloudy SCT037 SCT050 61.3 49.5 65% 30.15 0.0
17 19:55 N 3 10.00 Mostly Cloudy SCT037 SCT043 BKN050 63.5 50.4 62% 30.15 0.0
17 19:35 N 5 10.00 Partly Cloudy SCT044 SCT065 63.5 50.4 62% 30.15 0.0
17 19:15 N 7 10.00 Partly Cloudy SCT065 63.7 49.8 61% 30.15 0.0
17 18:55 NW 9 10.00 Mostly Cloudy BKN065 64.2 49.8 67.8 61.7 60% 30.15 0.0
17 18:40 N 7 10.00 Overcast OVC065 63.7 50.2 62% 30.15 0.0
17 18:15 N 5 10.00 Overcast SCT041 OVC060 65.5 49.3 56% 30.15 0.0
17 17:55 N 6 10.00 Overcast SCT044 OVC060 64.4 50.4 61% 30.15 0.0
17 17:35 N 7 10.00 Overcast OVC060 64 49.6 60% 30.14 0.0
17 17:15 N 8 10.00 Overcast OVC060 64.8 49.1 57% 30.14 0.0
17 16:55 N 9 G 17 10.00 Overcast OVC060 64.2 49.8 60% 30.14 0.0
17 16:35 N 8 10.00 Overcast OVC060 64.4 49.6 59% 30.14 0.0
17 16:15 N 12 G 16 10.00 Overcast OVC060 64.4 48.7 57% 30.14 0.0
17 15:55 N 13 G 20 10.00 Overcast SCT045 OVC060 64.6 48.4 56% 30.13 0.0
17 15:35 N 12 10.00 Overcast SCT039 SCT050 OVC060 65.1 49.8 58% 30.13 0.0
17 15:15 N 12 G 16 10.00 Overcast SCT041 OVC050 65.5 49.5 56% 30.13 0.0
17 14:55 N 12 G 16 10.00 Overcast BKN041 OVC050 66.9 49.3 53% 30.12 0.0
17 14:35 N 12 G 22 10.00 Overcast SCT039 OVC050 65.3 49.3 56% 30.11 0.0
17 14:15 N 14 G 18 10.00 Mostly Cloudy SCT032 BKN040 BKN047 65.1 49.3 57% 30.1 0.0
17 13:55 N 14 10.00 Mostly Cloudy SCT032 SCT039 BKN049 65.1 50.7 60% 30.1 0.0
17 13:35 NW 12 10.00 Mostly Cloudy SCT032 BKN050 65.1 50.9 60% 30.1 0.0
17 13:15 NW 15 10.00 Overcast SCT031 SCT038 OVC048 63.5 50.5 63% 30.1 0.0
17 12:55 N 13 G 18 10.00 Overcast BKN037 OVC045 61.9 49.5 64 54.9 64% 30.1 0.0
17 12:35 N 13 G 18 10.00 Overcast SCT032 OVC044 64 49.5 59% 30.09 0.0
17 12:15 N 10 G 20 10.00 Overcast BKN032 BKN040 OVC046 61.7 49.1 64% 30.1 0.0
17 11:55 NW 12 10.00 Overcast SCT037 OVC045 62.6 48.6 60% 30.1 0.0
17 11:35 N 13 G 20 10.00 Overcast BKN036 OVC043 62.2 48.7 61% 30.09 0.0
17 11:15 NW 16 G 22 10.00 Overcast SCT029 OVC038 61.2 48.2 63% 30.08 0.0
17 10:55 NW 15 G 21 10.00 Overcast BKN031 OVC036 60.4 48.9 66% 30.08 0.0
17 10:35 NW 14 G 17 10.00 Overcast BKN029 OVC037 61 48 63% 30.08 0.0
17 10:15 NW 13 G 17 10.00 Overcast BKN029 OVC036 61.3 49.6 66% 30.07 0.0
17 09:55 NW 14 10.00 Overcast BKN027 OVC035 60.6 49.5 67% 30.07 0.0
17 09:35 N 10 10.00 Overcast SCT023 OVC029 59.2 50.4 73% 30.07 0.0
17 09:15 NW 10 G 20 10.00 Overcast BKN021 OVC029 59.7 51.8 75% 30.07 0.0
17 08:55 NW 9 G 16 10.00 Partly Cloudy SCT019 58.1 52 80% 30.06 0.0
17 08:35 N 10 10.00 Partly Cloudy SCT019 59 51.6 77% 30.05 0.0
17 08:15 N 12 10.00 Fair CLR 57.9 53.1 84% 30.05 0.0
17 07:55 N 10 10.00 Fair CLR 57.2 54.7 91% 30.04 0.0
17 07:35 N 10 10.00 Fair CLR 56.3 55.4 97% 30.03 0.0
17 07:15 N 8 10.00 Fair CLR 55.6 54.7 97% 30.03 0.0
17 06:55 NW 7 10.00 Fair CLR 54.7 53.8 58.6 51.8 97% 30.02 0.0
17 06:35 NW 6 10.00 Fair CLR 53.8 52.9 97% 30.01 0.0
17 06:15 NW 6 10.00 Fair CLR 52.7 51.8 97% 30.01 0.0
17 05:55 Calm 10.00 Fair CLR 52.5 51.6 97% 30 0.0
17 05:35 Calm 10.00 Fair CLR 52.3 51.4 97% 29.99 0.0
17 05:15 Calm 10.00 Fair CLR 52.7 51.8 97% 29.99 0.0
17 04:55 Calm 10.00 Fair CLR 53.1 52.2 97% 29.98 0.0
17 04:35 N 5 10.00 Fair CLR 52.9 52 97% 29.97 0.0
17 04:15 N 3 10.00 Fair CLR 53.8 52.9 97% 29.97 0.0
17 03:55 N 6 10.00 Fair CLR 54.5 53.6 97% 29.97 0.0
17 03:35 N 6 10.00 Fair CLR 54.7 53.8 97% 29.96 0.0
17 03:15 NW 5 10.00 Fair CLR 54.9 54 97% 29.96 0.0
17 02:55 NW 5 10.00 Fair CLR 55.4 54.5 97% 29.96 0.0
17 02:35 NW 5 10.00 Fair CLR 55.9 53.1 90% 29.96 0.0
17 02:15 NW 5 10.00 Fair CLR 57 51.6 82% 29.95 0.0
17 01:55 NW 3 10.00 Fair CLR 57.2 50.9 80% 29.94 0.0
17 01:35 N 5 10.00 Partly Cloudy SCT110 57.6 50.9 79% 29.94 0.0
17 01:15 N 5 10.00 Partly Cloudy SCT100 58.5 51.1 77% 29.94 0.0
17 00:55 N 5 10.00 Partly Cloudy SCT100 58.8 51.8 72.5 58.8 78% 29.94 0.0
17 00:35 N 6 10.00 Mostly Cloudy BKN110 59.9 51.8 75% 29.94 0.0
17 00:15 N 8 10.00 Overcast OVC100 61.7 52.2 71% 29.94 0.0
16 23:55 N 8 10.00 Mostly Cloudy BKN110 61.9 52.2 71% 29.94 0.0
16 23:35 NW 6 10.00 Partly Cloudy SCT110 62.4 51.8 68% 29.93 0.0
16 23:15 NW 3 10.00 Overcast OVC110 62.8 52.5 69% 29.93 0.0
16 22:55 W 5 10.00 Overcast OVC110 63.5 52.3 67% 29.93 0.0
16 22:35 Calm 10.00 Mostly Cloudy BKN120 61.9 53.4 74% 29.93 0.0
16 22:15 NW 3 10.00 Fair CLR 62.8 52.9 70% 29.93 0.0
16 21:55 Calm 10.00 Partly Cloudy SCT075 SCT085 SCT110 64.2 52.7 66% 29.93 0.0
16 21:35 NW 6 10.00 Overcast SCT075 OVC100 65.7 52.9 64% 29.92 0.0
16 21:15 W 3 10.00 Mostly Cloudy BKN100 64.8 54.1 69% 29.91 0.0
16 20:55 Calm 10.00 Fair CLR 65.8 53.2 64% 29.9 0.0
16 20:35 Calm 10.00 Fair CLR 65.7 54.7 68% 29.9 0.0
16 20:15 NW 3 10.00 Fair CLR 68.5 52.5 57% 29.9 0.0
16 19:55 NW 5 10.00 Fair CLR 69.3 53.2 57% 29.89 0.0
16 19:35 NW 6 10.00 Fair CLR 70.9 51.4 50% 29.89 0.0
16 19:15 NW 8 10.00 Fair CLR 71.6 50.9 48% 29.89 0.0
16 18:55 NW 10 10.00 Partly Cloudy SCT055 SCT065 72.7 52.2 76.1 72.5 49% 29.89 0.0
16 18:35 NW 10 10.00 Partly Cloudy SCT049 SCT060 73.6 52.7 48% 29.89 0.0
16 18:15 NW 9 10.00 Mostly Cloudy SCT047 BKN060 72.7 54.1 52% 29.89 0.0
16 17:55 W 9 10.00 Partly Cloudy SCT049 74.3 54.9 51% 29.89 0.0
16 17:35 NW 14 G 18 10.00 Partly Cloudy SCT060 SCT070 73.9 55 52% 29.89 0.0
16 17:15 NW 9 10.00 Mostly Cloudy SCT060 SCT070 BKN090 73 55.8 55% 29.89 0.0
16 16:55 NW 10 10.00 Mostly Cloudy SCT043 SCT060 BKN090 73.2 55.9 55% 29.89 0.0
16 16:35 W 12 G 17 10.00 Mostly Cloudy SCT043 SCT060 BKN090 74.5 56.3 53% 29.89 0.0
16 16:15 W 8 10.00 Partly Cloudy SCT060 SCT100 75.7 56.3 51% 78 29.89 0.0
16 15:55 W 12 G 16 10.00 Fair CLR 74.3 55.4 52% 29.88 0.0
16 15:35 NW 9 10.00 Partly Cloudy SCT095 73.2 56.1 55% 29.88 0.0
16 15:15 W 10 10.00 Overcast OVC095 72.7 55.9 56% 29.88 0.0
16 14:55 W 14 G 20 10.00 Mostly Cloudy BKN095 73.8 54.9 52% 29.87 0.0
16 14:35 NW 9 G 16 10.00 Partly Cloudy SCT075 SCT085 75.4 56.5 52% 78 29.87 0.0
16 14:15 NW 9 10.00 Overcast SCT047 BKN075 OVC085 73.4 56.3 55% 29.86 0.0
16 13:55 W 9 10.00 Overcast BKN045 BKN060 OVC085 75.4 55.9 51% 78 29.86 0.0
16 13:35 W 8 10.00 Mostly Cloudy BKN045 BKN060 BKN075 72.7 55.4 55% 29.87 0.0
16 13:15 W 9 10.00 Mostly Cloudy SCT045 BKN060 BKN075 73.9 56.3 54% 29.87 0.0
16 12:55 W 9 10.00 Mostly Cloudy SCT044 BKN050 BKN075 74.3 56.8 74.3 61.7 55% 29.87 0.0
16 12:35 W 7 10.00 Mostly Cloudy SCT040 BKN047 BKN050 73.2 56.7 56% 29.88 0.0
16 12:15 NW 7 10.00 Mostly Cloudy SCT039 BKN047 BKN050 72.1 56.5 58% 29.88 0.0
16 11:55 NW 6 10.00 Mostly Cloudy SCT042 BKN050 73.2 56.1 55% 29.87 0.0
16 11:35 N 9 10.00 Partly Cloudy SCT036 SCT042 SCT047 72.1 55.9 57% 29.88 0.0
16 11:15 N 8 10.00 Partly Cloudy SCT036 SCT045 72.3 56.1 57% 29.87 0.0
16 10:55 N 8 10.00 Partly Cloudy SCT034 71.6 57 60% 29.86 0.0
16 10:35 N 7 10.00 Partly Cloudy SCT030 71.2 55.9 59% 29.86 0.0
16 10:15 N 5 10.00 Partly Cloudy SCT027 70.2 57.2 64% 29.86 0.0
16 10:00 N 6 10.00 Partly Cloudy SCT025 69.8 57.6 65% 29.86 0.0
16 09:35 N 6 10.00 Partly Cloudy SCT021 SCT029 69.3 59.2 70% 29.86 0.0
16 09:15 NW 6 10.00 Partly Cloudy SCT019 68.2 60.8 77% 29.85 0.0
16 08:55 N 6 10.00 Partly Cloudy SCT017 67.3 61.2 81% 29.85 0.0
16 08:35 N 5 10.00 Fair CLR 66.4 62.4 87% 29.85 0.0
16 08:15 N 5 10.00 Fair CLR 65.3 63.3 93% 29.85 0.0
16 07:55 N 6 10.00 Partly Cloudy SCT065 64.4 63 95% 29.84 0.0
16 07:35 NW 3 10.00 Mostly Cloudy BKN065 63.7 62.8 97% 29.84 0.0
16 07:15 Calm 10.00 Mostly Cloudy BKN065 62.6 61.7 97% 29.83 0.0
16 06:55 N 5 10.00 Partly Cloudy SCT065 61.5 60.6 65.1 59.4 97% 29.82 0.0
16 06:35 N 5 10.00 Fair CLR 60.1 59.2 97% 29.82 0.0
16 06:15 N 3 10.00 Fair CLR 59.5 58.6 97% 29.82 0.0
16 05:55 NE 6 10.00 Fair CLR 59.4 58.5 97% 29.81 0.0
16 05:35 NE 6 10.00 Partly Cloudy SCT065 59.9 59 97% 29.81 0.0
16 05:15 N 6 10.00 Overcast OVC065 61 60.1 97% 29.81 0.0
16 04:55 N 6 10.00 Mostly Cloudy BKN065 61 60.1 97% 29.81 0.0
16 04:35 N 7 10.00 Fair CLR 60.8 59.9 97% 29.81 0.0
16 04:15 N 6 10.00 Partly Cloudy SCT065 61 60.1 97% 29.8 0.0
16 03:55 N 6 10.00 Overcast OVC065 61.7 60.8 97% 29.78 0.0
16 03:35 N 5 10.00 Mostly Cloudy BKN065 61.9 61 97% 29.78 0.0
16 03:15 N 3 10.00 Fair CLR 61.5 60.6 97% 29.78 0.0
16 02:55 N 5 10.00 Fair CLR 62.2 61.3 97% 29.78 0.0
16 02:35 N 5 10.00 Fair CLR 63 62.1 97% 29.78 0.0
16 02:15 NW 5 10.00 Fair CLR 63.5 62.6 97% 29.77 0.0
16 01:55 N 6 10.00 Fair CLR 64.4 63.5 97% 29.76 0.0
16 01:35 N 6 10.00 Fair CLR 64.8 63.9 97% 29.76 0.0
16 01:15 N 6 10.00 Fair CLR 64.6 63.7 97% 29.76 0.0
16 00:55 N 6 10.00 Fair CLR 64.9 64 76.6 64.9 97% 29.76 0.0
16 00:35 N 3 10.00 Fair CLR 65.5 64.6 97% 29.76 0.0
16 00:15 N 5 10.00 Fair CLR 66.2 65.3 97% 29.76 0.0
15 23:55 N 5 10.00 Fair CLR 66.9 66 97% 29.75 0.0
15 23:35 N 5 10.00 Fair CLR 67.3 66.4 97% 29.75 0.0
15 23:15 N 6 10.00 Fair CLR 68.2 67.3 97% 29.75 0.0
15 22:55 N 6 10.00 Fair CLR 69.1 68.2 97% 29.74 0.0
15 22:35 N 7 0.00 NULL NULL 70.2 69.3 97% 29.73 0.0
15 22:15 N 6 10.00 Partly Cloudy SCT027 SCT070 SCT080 69.3 68.4 97% 29.73 0.0
15 21:55 Calm 10.00 Fair CLR 69.8 68.9 97% 29.73 0.0
15 21:35 Calm 7.00 Fair CLR 70.9 70 97% 29.73 0.0
15 21:15 Calm 10.00 Partly Cloudy SCT025 SCT032 71.8 70.9 97% 29.73 0.0
15 20:55 W 3 10.00 Partly Cloudy SCT025 72.3 70.5 94% 29.73 0.0
15 20:35 Calm 10.00 Fair CLR 73.4 68.4 84% 29.7 0.0
15 19:55 Calm 10.00 Partly Cloudy SCT036 75.2 66.6 75% 76 29.72 0.0
15 19:35 Calm 10.00 Partly Cloudy SCT029 SCT036 SCT055 75.4 66 73% 77 29.71 0.0
15 19:15 W 3 10.00 Mostly Cloudy BKN031 BKN041 BKN055 76.3 65.8 70% 78 29.72 0.0
15 18:55 W 7 10.00 Overcast BKN031 OVC038 76.1 64.9 79.7 76.1 68% 78 29.72 0.0
15 18:35 SW 9 10.00 Partly Cloudy SCT031 SCT037 76.3 64.4 67% 78 29.71 0.0
15 18:15 W 7 10.00 Partly Cloudy SCT037 76.8 64.2 65% 79 29.7 0.0
15 17:55 W 6 10.00 Partly Cloudy SCT060 77.4 63.9 63% 79 29.71 0.0
15 17:35 SW 6 10.00 Partly Cloudy SCT060 77.5 63.5 62% 79 29.72 0.0
15 17:15 SW 5 10.00 Partly Cloudy SCT065 77.2 63 62% 79 29.75 0.0
15 16:55 SW 7 10.00 Partly Cloudy SCT065 78.1 61.7 57% 80 29.76 0.0
15 16:35 SW 10 10.00 Partly Cloudy SCT065 SCT080 SCT090 78.8 62.4 57% 80 29.76 0.0
15 16:15 S 9 10.00 Mostly Cloudy SCT060 BKN070 BKN085 78.6 65.1 63% 80 29.77 0.0
15 15:55 S 9 10.00 Mostly Cloudy BKN070 BKN085 78.6 64.2 61% 80 29.77 0.0
15 15:35 S 6 10.00 Partly Cloudy SCT070 78.3 63.3 60% 80 29.77 0.0
Date Time (cdt) Wind (mph) Vis. (mi.) Weather Sky Cond. Air Dwpt Max. Min. Relative Humidity Wind Chill (°F) Heat Index (°F) altimeter (in) sea level (mb) 1 hr 3 hr 6 hr
6 hour
Temperature (ºF) Pressure Precipitation (in)